Flag for South Africa Weather past 2 weeks in Cape Town, South Africa

55 °F

Passing clouds.

Feels Like: 54 °F
Forecast: 58 / 62 °F
Wind: 6 mph from South

Location: Cape Town International Airport

Current Time: Oct 14, 2015 at 1:28:47 AM

Latest Report: Oct 14, 2015 at 12:00 AM

Visibility: N/A

Pressure: 30.12 "Hg

Humidity: 94%

Dew point: 54 °F

Location of Cape TownLocation

Historic Weather in Cape Town — Graph


Cape Town temperature yesterday

Maximum temperature yesterday: 66 °F (at 11:00 AM)
Minimum temperature yesterday: 55 °F (at 1:00 AM)
Average temperature yesterday: 60 °F

Past Weeks' High & Low Weather Summary

High79 °F (Oct 9, 1:00 PM)100% (Oct 4, 7:00 AM)30.27 "Hg (Oct 4, 7:00 AM)
Low45 °F (Oct 1, 5:00 AM)38% (Oct 1, 12:00 PM)29.89 "Hg (Sep 29, 3:00 AM)
Average59 °F74%30.08 "Hg
* Reported Midnight between Sep 28 and Sep 29 — Midnight between Oct 13 and Oct 14, Cape Town, Weather by CustomWeather, © 2015

Note: Actual official high and low records may vary slightly from our data, if they occured in-between our weather recording intervals... More about our weather records


Cape Town weather history for previous 24 hours

Time TempWeatherWind HumidityBarometerVisibility
12:00 AM
Wed, Oct 14
55 °FPassing clouds.6 mph94%30.12 "HgN/A
11:00 PM
Tue, Oct 13
55 °FPartly cloudy.8 mph88%30.12 "HgN/A
10:00 PM55 °FPassing clouds.6 mph94%30.12 "HgN/A
9:00 PM55 °FPassing clouds.6 mph94%30.12 "HgN/A
8:00 PM57 °FLow clouds.7 mph88%30.09 "HgN/A
7:00 PM57 °FDrizzle. Mostly cloudy.12 mph88%30.07 "Hg3 mi
6:00 PM61 °FOvercast.12 mph83%30.07 "HgN/A
5:00 PM63 °FOvercast.16 mph73%30.04 "HgN/A
4:00 PM63 °FPartly sunny.16 mph73%30.04 "HgN/A
3:00 PM66 °FPartly sunny.20 mph60%30.04 "HgN/A
2:00 PM66 °FPartly sunny.20 mph60%30.04 "HgN/A
1:00 PM63 °FBroken clouds.15 mph73%30.07 "HgN/A
12:00 PM63 °FBroken clouds.22 mph68%30.07 "HgN/A
11:00 AM66 °FBroken clouds.17 mph52%30.04 "HgN/A
10:00 AM64 °FBroken clouds.10 mph60%30.01 "HgN/A
9:00 AM63 °FPartly sunny.13 mph64%30.01 "HgN/A
8:00 AM61 °FPartly sunny.15 mph72%30.01 "HgN/A
7:00 AM57 °FPartly sunny.13 mph82%30.01 "HgN/A
6:00 AM59 °FLight rain. Partly sunny.7 mph77%29.98 "HgN/A
5:00 AM57 °FPassing clouds.8 mph82%29.98 "HgN/A
4:00 AM55 °FPassing clouds.5 mph82%29.95 "HgN/A
3:00 AM55 °FPassing clouds.6 mph82%29.98 "HgN/A
2:00 AM55 °FPassing clouds.5 mph82%29.98 "HgN/A
1:00 AM55 °FPassing clouds.5 mph82%29.98 "HgN/A
Weather by CustomWeather, © 2015

See weather overviewHow to use our weather pages